Regional Weather Roundup
Issued by NWS Little Rock, AR

Home | Current Version | Previous Version | Graphics & Text | Print | Product List | Glossary On
Versions: 1 2 3 4 5 6 7 8 9 10 11 12 13 14 15 16 17 18 19 20 21 22 23 24 25 26 27
000
ASUS44 KLZK 051305
RWRLZK

WEATHER ROUNDUP FOR ARKANSAS
NATIONAL WEATHER SERVICE LITTLE ROCK AR
800 AM CDT THU MAY 05 2016

NOTE: "FAIR" INDICATES FEW OR NO CLOUDS BELOW 12,000 FEET WITH NO
SIGNIFICANT WEATHER AND/OR OBSTRUCTIONS TO VISIBILITY.

ARZ001-003-010-029-051400-
NORTHWEST ARKANSAS

CITY           SKY/WX    TMP DP  RH WIND       PRES   REMARKS
FAYETTEVILLE   SUNNY     45  44  97 S3        30.07R
FORT SMITH     SUNNY     54  45  71 CALM      30.06R
HARRISON       SUNNY     55  40  56 W6        30.04R
BENTONVILLE    SUNNY     52  39  62 CALM      30.07R
ROGERS         SUNNY     52  44  74 W3        30.07R
SILOAM SPGS    SUNNY     50  39  66 CALM      30.08R
HIGHFILL       SUNNY     52  47  83 CALM      30.06R
SPRINGDALE     SUNNY     50  43  76 CALM      30.08R
$$

ARZ004-005-016-051400-
NORTH CENTRAL ARKANSAS

CITY           SKY/WX    TMP DP  RH WIND       PRES   REMARKS
BATESVILLE     SUNNY     54  41  62 W6        30.00R
FLIPPIN        SUNNY    N/A N/A N/A CALM      29.99R
MTN HOME       SUNNY     52  46  80 VRB3      30.01R
$$

ARZ040-041-051400-
WEST CENTRAL ARKANSAS

CITY           SKY/WX    TMP DP  RH WIND       PRES   REMARKS
MENA           SUNNY     55  48  76 CALM      30.06R
MOUNT IDA      SUNNY     52  48  86 CALM      30.02R
$$

ARZ009-017-025-026-028-051400-
NORTHEAST ARKANSAS

CITY           SKY/WX    TMP DP  RH WIND       PRES   REMARKS
CORNING          N/A     54  41  62 N9        29.96S
JONESBORO      SUNNY     56  42  59 NW10      29.96R
NEWPORT        SUNNY     56  43  61 W8        29.99R
WALNUT RIDGE   SUNNY     54  39  58 NW12      29.95F
BLYTHEVILLE    SUNNY     56  44  64 NW13      29.93R
$$

ARZ022-023-033-042-044-051400-
CENTRAL ARKANSAS

CITY           SKY/WX    TMP DP  RH WIND       PRES   REMARKS
LITTLE ROCK    SUNNY     61  43  51 NW8       30.02R
N LITTLE ROCK    N/A     58  45  62 NW6       30.01R
JACKSONVILLE   SUNNY     55  47  72 W3        30.01R
SEARCY         SUNNY     57  46  66 CALM      30.02R
HOT SPRINGS    SUNNY     55  46  71 CALM      30.04R
RUSSELLVILLE   SUNNY     54  47  77 N6        30.04R
CLINTON        FAIR      48  46  93 CALM      30.04R
$$

ARZ036-051400-
EAST ARKANSAS

CITY           SKY/WX    TMP DP  RH WIND       PRES   REMARKS
WEST MEMPHIS   SUNNY     56  46  69 VRB3      29.94R
$$

ARZ050-053-066-070-073-051400-
SOUTHWEST ARKANSAS

CITY           SKY/WX    TMP DP  RH WIND       PRES   REMARKS
ARKADELPHIA    FAIR      59  55  86 CALM      30.04R
CAMDEN         SUNNY     55  50  82 N3        30.03R
TEXARKANA      SUNNY     59  46  62 NW6       30.04R
EL DORADO      SUNNY     57  48  72 NW7       30.03R
DE QUEEN       SUNNY     52  50  93 CALM      30.04R
$$

ARZ056-057-069-051400-
SOUTHEAST ARKANSAS

CITY           SKY/WX    TMP DP  RH WIND       PRES   REMARKS
PINE BLUFF     SUNNY     57  47  69 NW5       30.02R
STUTTGART      SUNNY     57  45  62 W8        30.01R
MONTICELLO     SUNNY     59  46  62 NW5       30.00R

$$






USA.gov is the U.S. government's official web portal to all federal, state and local government web resources and services.